Year,Month,Day,Hour,Minute,Value (Times are PST for temperature in C)
2017,03,17,00,00,5.40
2017,03,17,00,01,5.30
2017,03,17,00,02,5.30
2017,03,17,00,03,5.30
2017,03,17,00,04,5.30
2017,03,17,00,05,5.30
2017,03,17,00,06,5.30
2017,03,17,00,07,5.30
2017,03,17,00,08,5.30
2017,03,17,00,09,5.30
2017,03,17,00,10,5.30
2017,03,17,00,11,5.30
2017,03,17,00,12,5.30
2017,03,17,00,13,5.30
2017,03,17,00,14,5.30
2017,03,17,00,15,5.30
2017,03,17,00,16,5.30
2017,03,17,00,17,5.40
2017,03,17,00,18,5.40
2017,03,17,00,19,5.40
2017,03,17,00,20,5.40
2017,03,17,00,21,5.40
2017,03,17,00,22,5.40
2017,03,17,00,23,5.40
2017,03,17,00,24,5.40
2017,03,17,00,25,5.60
2017,03,17,00,26,5.70
2017,03,17,00,27,5.80
2017,03,17,00,28,5.80
2017,03,17,00,29,5.80
2017,03,17,00,30,5.80
2017,03,17,00,31,5.70
2017,03,17,00,32,5.70
2017,03,17,00,33,5.70
2017,03,17,00,34,5.70
2017,03,17,00,35,5.60
2017,03,17,00,36,5.60
2017,03,17,00,37,5.60
2017,03,17,00,38,5.70
2017,03,17,00,39,5.70
2017,03,17,00,40,5.70
2017,03,17,00,41,5.70
2017,03,17,00,42,5.70
2017,03,17,00,43,5.70
2017,03,17,00,44,5.60
2017,03,17,00,45,5.60
2017,03,17,00,46,5.60
2017,03,17,00,47,5.60
2017,03,17,00,48,5.60
2017,03,17,00,49,5.60
2017,03,17,00,50,5.60
2017,03,17,00,51,5.60
2017,03,17,00,52,5.60
2017,03,17,00,53,5.60
2017,03,17,00,54,5.60
2017,03,17,00,55,5.60
2017,03,17,00,56,5.60
2017,03,17,00,57,5.60
2017,03,17,00,58,5.60
2017,03,17,00,59,5.60
2017,03,17,01,00,5.60
2017,03,17,01,01,5.50
2017,03,17,01,02,5.50
2017,03,17,01,03,5.40
2017,03,17,01,04,5.40
2017,03,17,01,05,5.30
2017,03,17,01,06,5.20
2017,03,17,01,07,5.20
2017,03,17,01,08,5.20
2017,03,17,01,09,5.20
2017,03,17,01,10,5.20
2017,03,17,01,11,5.20
2017,03,17,01,12,5.20
2017,03,17,01,13,5.20
2017,03,17,01,14,5.20
2017,03,17,01,15,5.30
2017,03,17,01,16,5.40
2017,03,17,01,17,5.40
2017,03,17,01,18,5.40
2017,03,17,01,19,5.40
2017,03,17,01,20,5.50
2017,03,17,01,21,5.50
2017,03,17,01,22,5.50
2017,03,17,01,23,5.50
2017,03,17,01,24,5.60
2017,03,17,01,25,5.50
2017,03,17,01,26,5.50
2017,03,17,01,27,5.50
2017,03,17,01,28,5.50
2017,03,17,01,29,5.40
2017,03,17,01,30,5.40
2017,03,17,01,31,5.40
2017,03,17,01,32,5.40
2017,03,17,01,33,5.40
2017,03,17,01,34,5.50
2017,03,17,01,35,5.60
2017,03,17,01,36,5.70
2017,03,17,01,37,5.80
2017,03,17,01,38,5.90
2017,03,17,01,39,6.10
2017,03,17,01,40,6.20
2017,03,17,01,41,6.30
2017,03,17,01,42,6.30
2017,03,17,01,43,6.30
2017,03,17,01,44,6.30
2017,03,17,01,45,6.30
2017,03,17,01,46,6.30
2017,03,17,01,47,6.30
2017,03,17,01,48,6.30
2017,03,17,01,49,6.30
2017,03,17,01,50,6.30
2017,03,17,01,51,6.30
2017,03,17,01,52,6.30
2017,03,17,01,53,6.30
2017,03,17,08,23,6.20
2017,03,17,08,24,6.20
2017,03,17,08,25,6.20
2017,03,17,08,26,6.20
2017,03,17,08,27,6.20
2017,03,17,08,28,6.20
2017,03,17,08,29,6.20
2017,03,17,08,30,6.20
2017,03,17,08,31,6.20
2017,03,17,08,32,6.20
2017,03,17,08,33,6.20
2017,03,17,08,34,6.20
2017,03,17,08,35,6.20
2017,03,17,08,36,6.20
2017,03,17,08,37,6.30
2017,03,17,08,38,6.30
2017,03,17,08,39,6.30
2017,03,17,08,40,6.30
2017,03,17,08,41,6.30
2017,03,17,08,42,6.30
2017,03,17,08,43,6.40
2017,03,17,08,44,6.40
2017,03,17,08,45,6.40
2017,03,17,08,46,6.40
2017,03,17,08,47,6.40
2017,03,17,08,48,6.50
2017,03,17,08,49,6.50
2017,03,17,08,50,6.50
2017,03,17,08,51,6.50
2017,03,17,08,52,6.60
2017,03,17,08,53,6.60
2017,03,17,08,54,6.60
2017,03,17,08,55,6.60
2017,03,17,08,56,6.60
2017,03,17,08,57,6.70
2017,03,17,08,58,6.70
2017,03,17,08,59,6.70
2017,03,17,09,00,6.70
2017,03,17,09,01,6.80
2017,03,17,09,02,6.80
2017,03,17,09,03,6.80
2017,03,17,09,04,6.80
2017,03,17,09,05,6.90
2017,03,17,09,06,6.90
2017,03,17,09,07,6.90
2017,03,17,09,08,6.90
2017,03,17,09,09,7.00
2017,03,17,09,10,7.00
2017,03,17,09,11,7.00
2017,03,17,09,12,7.10
2017,03,17,09,13,7.10
2017,03,17,09,14,7.10
2017,03,17,09,15,7.10
2017,03,17,09,16,7.10
2017,03,17,09,17,7.10
2017,03,17,09,18,7.10
2017,03,17,09,19,7.10
2017,03,17,09,20,7.10
2017,03,17,09,21,7.10
2017,03,17,09,22,7.10
2017,03,17,09,23,7.10
2017,03,17,09,24,7.20
2017,03,17,09,25,7.20
2017,03,17,09,26,7.20
2017,03,17,09,27,7.20
2017,03,17,09,28,7.20
2017,03,17,09,29,7.20
2017,03,17,09,30,7.20
2017,03,17,09,31,7.20
2017,03,17,09,32,7.20
2017,03,17,09,33,7.20
2017,03,17,09,34,7.20
2017,03,17,09,35,7.20
2017,03,17,09,36,7.20
2017,03,17,09,37,7.20
2017,03,17,09,38,7.20
2017,03,17,09,39,7.20
2017,03,17,09,40,7.20
2017,03,17,09,41,7.20
2017,03,17,09,42,7.20
2017,03,17,09,43,7.20
2017,03,17,09,44,7.20
2017,03,17,09,45,7.20
2017,03,17,09,46,7.20
2017,03,17,09,47,7.20
2017,03,17,09,48,7.30
2017,03,17,09,49,7.30
2017,03,17,09,50,7.30
2017,03,17,09,51,7.30
2017,03,17,09,52,7.30
2017,03,17,09,53,7.30
2017,03,17,09,54,7.40
2017,03,17,09,55,7.40
2017,03,17,09,56,7.40
2017,03,17,09,57,7.40
2017,03,17,09,58,7.40
2017,03,17,09,59,7.50
2017,03,17,10,00,7.50
2017,03,17,10,01,7.50
2017,03,17,10,02,7.50
2017,03,17,10,03,7.50
2017,03,17,10,04,7.50
2017,03,17,10,05,7.50
2017,03,17,10,06,7.60
2017,03,17,10,07,7.60
2017,03,17,10,08,7.60
2017,03,17,10,09,7.60
2017,03,17,10,10,7.60
2017,03,17,10,11,7.60
2017,03,17,10,12,7.70
2017,03,17,10,13,7.70
2017,03,17,10,14,7.70
2017,03,17,10,15,7.70
2017,03,17,10,16,7.70
2017,03,17,10,17,7.70
2017,03,17,10,18,7.70
2017,03,17,10,19,7.70
2017,03,17,10,20,7.70
2017,03,17,10,21,7.80
2017,03,17,10,22,7.80
2017,03,17,10,23,7.80
2017,03,17,10,24,7.80
2017,03,17,10,25,7.80
2017,03,17,10,26,7.80
2017,03,17,10,27,7.80
2017,03,17,10,28,7.90
2017,03,17,10,29,7.90
2017,03,17,10,30,7.90
2017,03,17,10,31,7.90
2017,03,17,10,32,7.90
2017,03,17,10,33,7.90
2017,03,17,10,34,7.90
2017,03,17,10,35,8.00
2017,03,17,10,36,8.00
2017,03,17,10,37,8.00
2017,03,17,10,38,8.00
2017,03,17,10,39,8.00
2017,03,17,10,40,8.00
2017,03,17,10,41,8.10
2017,03,17,10,42,8.10
2017,03,17,10,43,8.00
2017,03,17,10,44,8.10
2017,03,17,10,45,8.10
2017,03,17,10,46,8.10
2017,03,17,10,47,8.10
2017,03,17,10,48,8.00
2017,03,17,10,49,8.00
2017,03,17,10,50,8.00
2017,03,17,10,51,8.10
2017,03,17,10,52,8.00
2017,03,17,10,53,8.00
2017,03,17,10,54,8.00
2017,03,17,10,55,8.00
2017,03,17,10,56,8.00
2017,03,17,10,57,8.00
2017,03,17,10,58,8.00
2017,03,17,10,59,8.00
2017,03,17,11,00,8.00
2017,03,17,11,01,8.10
2017,03,17,11,02,8.10
2017,03,17,11,03,8.10
2017,03,17,11,04,8.10
2017,03,17,11,05,8.10
2017,03,17,11,06,8.10
2017,03,17,11,07,8.10
2017,03,17,11,08,8.10
2017,03,17,11,09,8.10
2017,03,17,11,10,8.10
2017,03,17,11,11,8.10
2017,03,17,11,12,8.10
2017,03,17,11,13,8.20
2017,03,17,11,14,8.20
2017,03,17,11,15,8.10
2017,03,17,11,16,8.10
2017,03,17,11,17,8.10
2017,03,17,11,18,8.10
2017,03,17,11,19,8.10
2017,03,17,11,20,8.10
2017,03,17,11,21,8.10
2017,03,17,11,22,8.10
2017,03,17,11,23,8.20
2017,03,17,11,24,8.20
2017,03,17,11,25,8.20
2017,03,17,11,26,8.20
2017,03,17,11,27,8.20
2017,03,17,11,28,8.20
2017,03,17,11,29,8.20
2017,03,17,11,30,8.30
2017,03,17,11,31,8.30
2017,03,17,11,32,8.30
2017,03,17,11,33,8.30
2017,03,17,11,34,8.30
2017,03,17,11,35,8.30
2017,03,17,11,36,8.40
2017,03,17,11,37,8.40
2017,03,17,11,38,8.40
2017,03,17,11,39,8.40
2017,03,17,11,40,8.40
2017,03,17,11,41,8.40
2017,03,17,11,42,8.40
2017,03,17,11,43,8.40
2017,03,17,11,44,8.40
2017,03,17,11,45,8.40
2017,03,17,11,46,8.40
2017,03,17,11,47,8.40
2017,03,17,11,48,8.40
2017,03,17,11,49,8.50
2017,03,17,11,50,8.40
2017,03,17,11,51,8.40
2017,03,17,11,52,8.40
2017,03,17,11,53,8.40
2017,03,17,11,54,8.50
2017,03,17,11,55,8.50
2017,03,17,11,56,8.50
2017,03,17,11,57,8.60
2017,03,17,11,58,8.60
2017,03,17,11,59,8.60
2017,03,17,12,00,8.60
2017,03,17,12,01,8.60
2017,03,17,12,02,8.60
2017,03,17,12,03,8.60
2017,03,17,12,04,8.60
2017,03,17,12,05,8.70
2017,03,17,12,06,8.70
2017,03,17,12,07,8.70
2017,03,17,12,08,8.70
2017,03,17,12,09,8.70
2017,03,17,12,10,8.70
2017,03,17,12,11,8.70
2017,03,17,12,12,8.70
2017,03,17,12,13,8.70
2017,03,17,12,14,8.70
2017,03,17,12,15,8.70
2017,03,17,12,16,8.70
2017,03,17,12,17,8.70
2017,03,17,12,18,8.70
2017,03,17,12,19,8.70
2017,03,17,12,20,8.70
2017,03,17,12,21,8.80
2017,03,17,12,22,8.70
2017,03,17,12,23,8.70
2017,03,17,12,24,8.70
2017,03,17,12,25,8.70
2017,03,17,12,26,8.70
2017,03,17,12,27,8.70
2017,03,17,12,28,8.70
2017,03,17,12,29,8.70
2017,03,17,12,30,8.70
2017,03,17,12,31,8.70
2017,03,17,12,32,8.70
2017,03,17,12,33,8.70
2017,03,17,12,34,8.70
2017,03,17,12,35,8.70
2017,03,17,12,36,8.80
2017,03,17,12,37,8.80
2017,03,17,12,38,8.80
2017,03,17,12,39,8.70
2017,03,17,12,40,8.80
2017,03,17,12,41,8.80
2017,03,17,12,42,8.80
2017,03,17,12,43,8.80
2017,03,17,12,44,8.80
2017,03,17,12,45,8.70
2017,03,17,12,46,8.70
2017,03,17,12,47,8.70
2017,03,17,12,48,8.70
2017,03,17,12,49,8.70
2017,03,17,12,50,8.70
2017,03,17,12,51,8.80
2017,03,17,12,52,8.80
2017,03,17,12,53,8.80
2017,03,17,12,54,8.80
2017,03,17,12,55,8.80
2017,03,17,12,56,8.80
2017,03,17,12,57,8.80
2017,03,17,12,58,8.80
2017,03,17,12,59,8.80
2017,03,17,13,00,8.80
2017,03,17,13,01,8.70
2017,03,17,13,02,8.70
2017,03,17,13,03,8.70
2017,03,17,13,04,8.80
2017,03,17,13,05,8.80
2017,03,17,13,06,8.80
2017,03,17,13,07,8.70
2017,03,17,13,08,8.70
2017,03,17,13,09,8.70
2017,03,17,13,10,8.70
2017,03,17,13,11,8.70
2017,03,17,13,12,8.70
2017,03,17,13,13,8.70
2017,03,17,13,14,8.70
2017,03,17,13,15,8.70
2017,03,17,13,16,8.70
2017,03,17,13,17,8.70
2017,03,17,13,18,8.70
2017,03,17,13,19,8.70
2017,03,17,13,20,8.60
2017,03,17,13,21,8.60
2017,03,17,13,22,8.70
2017,03,17,13,23,8.70
2017,03,17,13,24,8.60
2017,03,17,13,25,8.60
2017,03,17,13,26,8.60
2017,03,17,13,27,8.60
2017,03,17,13,28,8.60
2017,03,17,13,29,8.60
2017,03,17,13,30,8.60
2017,03,17,13,31,8.60
2017,03,17,13,32,8.60
2017,03,17,13,33,8.60
2017,03,17,13,34,8.60
2017,03,17,13,35,8.60
2017,03,17,13,36,8.70
2017,03,17,13,37,8.60
2017,03,17,13,38,8.60
2017,03,17,13,39,8.60
2017,03,17,13,40,8.60
2017,03,17,13,41,8.60
2017,03,17,13,42,8.70
2017,03,17,13,43,8.70
2017,03,17,13,44,8.70
2017,03,17,13,45,8.70
2017,03,17,13,46,8.70
2017,03,17,13,47,8.70
2017,03,17,13,48,8.70
2017,03,17,13,49,8.70
2017,03,17,13,50,8.70
2017,03,17,13,51,8.70
2017,03,17,13,52,8.70
2017,03,17,13,53,8.70
2017,03,17,13,54,8.70
2017,03,17,13,55,8.70
2017,03,17,13,56,8.80
2017,03,17,13,57,8.80
2017,03,17,13,58,8.80
2017,03,17,13,59,8.70
2017,03,17,14,00,8.80
2017,03,17,14,01,8.80
2017,03,17,14,02,8.80
2017,03,17,14,03,8.70
2017,03,17,14,04,8.70
2017,03,17,14,05,8.70
2017,03,17,14,06,8.60
2017,03,17,14,07,8.60
2017,03,17,14,08,8.70
2017,03,17,14,09,8.70
2017,03,17,14,10,8.70
2017,03,17,14,11,8.70
2017,03,17,14,12,8.60
2017,03,17,14,13,8.60
2017,03,17,14,14,8.60
2017,03,17,14,15,8.60
2017,03,17,14,16,8.70
2017,03,17,14,17,8.60
2017,03,17,14,18,8.60
2017,03,17,14,19,8.60
2017,03,17,14,20,8.60
2017,03,17,14,21,8.50
2017,03,17,14,22,8.60
2017,03,17,14,23,8.60
2017,03,17,14,24,8.60
2017,03,17,14,25,8.60
2017,03,17,14,26,8.60
2017,03,17,14,27,8.60
2017,03,17,14,28,8.70
2017,03,17,14,29,8.60
2017,03,17,14,30,8.60
2017,03,17,14,31,8.60
2017,03,17,14,32,8.60
2017,03,17,14,33,8.60
2017,03,17,14,34,8.60
2017,03,17,14,35,8.60
2017,03,17,14,36,8.60
2017,03,17,14,37,8.60
2017,03,17,14,38,8.60
2017,03,17,14,39,8.60
2017,03,17,14,40,8.60
2017,03,17,14,41,8.60
2017,03,17,14,42,8.60
2017,03,17,14,43,8.60
2017,03,17,14,44,8.60
2017,03,17,14,45,8.50
2017,03,17,14,46,8.50
2017,03,17,14,47,8.60
2017,03,17,14,48,8.60
2017,03,17,14,49,8.60
2017,03,17,14,50,8.60
2017,03,17,14,51,8.60
2017,03,17,14,52,8.60
2017,03,17,14,53,8.50
2017,03,17,14,54,8.50
2017,03,17,14,55,8.40
2017,03,17,14,56,8.40
2017,03,17,14,57,8.30
2017,03,17,14,58,8.20
2017,03,17,14,59,8.20
2017,03,17,15,00,8.20
2017,03,17,15,01,8.20
2017,03,17,15,02,8.10
2017,03,17,15,03,8.10
2017,03,17,15,04,8.10
2017,03,17,15,05,8.10
2017,03,17,15,06,8.00
2017,03,17,15,07,8.00
2017,03,17,15,08,8.00
2017,03,17,15,09,7.90
2017,03,17,15,10,7.90
2017,03,17,15,11,7.80
2017,03,17,15,12,7.80
2017,03,17,15,13,7.80
2017,03,17,15,14,7.70
2017,03,17,15,15,7.70
2017,03,17,15,16,7.70
2017,03,17,15,17,7.70
2017,03,17,15,18,7.60
2017,03,17,15,19,7.60
2017,03,17,15,20,7.60
2017,03,17,15,21,7.50
2017,03,17,15,22,7.50
2017,03,17,15,23,7.50
2017,03,17,15,24,7.40
2017,03,17,15,25,7.40
2017,03,17,15,26,7.40
2017,03,17,15,27,7.30
2017,03,17,15,28,7.30
2017,03,17,15,29,7.30
2017,03,17,15,30,7.30
2017,03,17,15,31,7.30
2017,03,17,15,32,7.30
2017,03,17,15,33,7.30
2017,03,17,15,34,7.30
2017,03,17,15,35,7.30
2017,03,17,15,36,7.20
2017,03,17,15,37,7.20
2017,03,17,15,38,7.20
2017,03,17,15,39,7.20
2017,03,17,15,40,7.20
2017,03,17,15,41,7.20
2017,03,17,15,42,7.20
2017,03,17,15,43,7.20
2017,03,17,15,44,7.20
2017,03,17,15,45,7.20
2017,03,17,15,46,7.20
2017,03,17,15,47,7.10
2017,03,17,15,48,7.10
2017,03,17,15,49,7.10
2017,03,17,15,50,7.10
2017,03,17,15,51,7.10
2017,03,17,15,52,7.10
2017,03,17,15,53,7.00
2017,03,17,15,54,7.00
2017,03,17,15,55,7.00
2017,03,17,15,56,7.00
2017,03,17,15,57,7.00
2017,03,17,15,58,7.00
2017,03,17,15,59,6.90
2017,03,17,16,00,6.90
2017,03,17,16,01,6.90
2017,03,17,16,02,6.90
2017,03,17,16,03,6.90
2017,03,17,16,04,6.90
2017,03,17,16,05,6.90
2017,03,17,16,06,6.90
2017,03,17,16,07,6.90
2017,03,17,16,08,6.90
2017,03,17,16,09,6.90
2017,03,17,16,10,6.90
2017,03,17,16,11,6.90
2017,03,17,16,12,6.90
2017,03,17,16,13,6.90
2017,03,17,16,14,6.90
2017,03,17,16,15,6.90
2017,03,17,16,16,6.90
2017,03,17,16,17,6.90
2017,03,17,16,18,6.90
2017,03,17,16,19,6.90
2017,03,17,16,20,6.90
2017,03,17,16,21,6.90
2017,03,17,16,22,6.80
2017,03,17,16,23,6.80
2017,03,17,16,24,6.80
2017,03,17,16,25,6.80
2017,03,17,16,26,6.80
2017,03,17,16,27,6.80
2017,03,17,16,28,6.80
2017,03,17,16,29,6.80
2017,03,17,16,30,6.80
2017,03,17,16,31,6.80
2017,03,17,16,32,6.80
2017,03,17,16,33,6.80
2017,03,17,16,34,6.80
2017,03,17,16,35,6.80
2017,03,17,16,36,6.70
2017,03,17,16,37,6.70
2017,03,17,16,38,6.70
2017,03,17,16,39,6.70
2017,03,17,16,40,6.70
2017,03,17,16,41,6.70
2017,03,17,16,42,6.70
2017,03,17,16,43,6.70
2017,03,17,16,44,6.70
2017,03,17,16,45,6.70
2017,03,17,16,46,6.70
2017,03,17,16,47,6.70
2017,03,17,16,48,6.70
2017,03,17,16,49,6.70
2017,03,17,16,50,6.70
2017,03,17,16,51,6.60
2017,03,17,16,52,6.60
2017,03,17,16,53,6.60
2017,03,17,16,54,6.60
2017,03,17,16,55,6.60
2017,03,17,16,56,6.60
2017,03,17,16,57,6.60
2017,03,17,16,58,6.60
2017,03,17,16,59,6.50
2017,03,17,17,00,6.50
2017,03,17,17,01,6.50
2017,03,17,17,02,6.50
2017,03,17,17,03,6.40
2017,03,17,17,04,6.40
2017,03,17,17,05,6.40
2017,03,17,17,06,6.40
2017,03,17,17,07,6.40
2017,03,17,17,08,6.40
2017,03,17,17,09,6.40
2017,03,17,17,10,6.40
2017,03,17,17,11,6.40
2017,03,17,17,12,6.40
2017,03,17,17,13,6.40
2017,03,17,17,14,6.40
2017,03,17,17,15,6.40
2017,03,17,17,16,6.40
2017,03,17,17,17,6.40
2017,03,17,17,18,6.40
2017,03,17,17,19,6.50
2017,03,17,17,20,6.50
2017,03,17,17,21,6.50
2017,03,17,17,22,6.50
2017,03,17,17,23,6.50
2017,03,17,17,24,6.50
2017,03,17,17,25,6.50
2017,03,17,17,26,6.50
2017,03,17,17,27,6.50
2017,03,17,17,28,6.50
2017,03,17,17,29,6.50
2017,03,17,17,30,6.50
2017,03,17,17,31,6.50
2017,03,17,17,32,6.50
2017,03,17,17,33,6.40
2017,03,17,17,34,6.40
2017,03,17,17,35,6.40
2017,03,17,17,36,6.40
2017,03,17,17,37,6.40
2017,03,17,17,38,6.40
2017,03,17,17,39,6.40
2017,03,17,17,40,6.40
2017,03,17,17,41,6.40
2017,03,17,17,42,6.40
2017,03,17,17,43,6.40
2017,03,17,17,44,6.40
2017,03,17,17,45,6.40
2017,03,17,17,46,6.40
2017,03,17,17,47,6.40
2017,03,17,17,48,6.40
2017,03,17,17,49,6.40
2017,03,17,17,50,6.40
2017,03,17,17,51,6.40
2017,03,17,17,52,6.40
2017,03,17,17,53,6.40
2017,03,17,17,54,6.40
2017,03,17,17,55,6.40
2017,03,17,17,56,6.40
2017,03,17,17,57,6.40
2017,03,17,17,58,6.40
2017,03,17,17,59,6.40
2017,03,17,18,00,6.30
2017,03,17,18,01,6.30
2017,03,17,18,02,6.30
2017,03,17,18,03,6.30
2017,03,17,18,04,6.30
2017,03,17,18,05,6.30
2017,03,17,18,06,6.30
2017,03,17,18,07,6.30
2017,03,17,18,08,6.20
2017,03,17,18,09,6.20
2017,03,17,18,10,6.20
2017,03,17,18,11,6.20
2017,03,17,18,12,6.20
2017,03,17,18,13,6.20
2017,03,17,18,14,6.20
2017,03,17,18,15,6.20
2017,03,17,18,16,6.20
2017,03,17,18,17,6.20
2017,03,17,18,18,6.20
2017,03,17,18,19,6.20
2017,03,17,18,20,6.20
2017,03,17,18,21,6.20
2017,03,17,18,22,6.20
2017,03,17,18,23,6.20
2017,03,17,18,24,6.10
2017,03,17,18,25,6.10
2017,03,17,18,26,6.10
2017,03,17,18,27,6.10
2017,03,17,18,28,6.10
2017,03,17,18,29,6.00
2017,03,17,18,30,6.00
2017,03,17,18,31,6.00
2017,03,17,18,32,6.00
2017,03,17,18,33,5.90
2017,03,17,18,34,5.90
2017,03,17,18,35,5.90
2017,03,17,18,36,5.90
2017,03,17,18,37,5.90
2017,03,17,18,38,5.90
2017,03,17,18,39,5.90
2017,03,17,18,40,5.90
2017,03,17,18,41,5.90
2017,03,17,18,42,5.90
2017,03,17,18,43,5.80
2017,03,17,18,44,5.80
2017,03,17,18,45,5.80
2017,03,17,18,46,5.80
2017,03,17,18,47,5.80
2017,03,17,18,48,5.80
2017,03,17,18,49,5.80
2017,03,17,18,50,5.80
2017,03,17,18,51,5.80
2017,03,17,18,52,5.80
2017,03,17,18,53,5.80
2017,03,17,18,54,5.80
2017,03,17,18,55,5.80
2017,03,17,18,56,5.80
2017,03,17,18,57,5.80
2017,03,17,18,58,5.80
2017,03,17,18,59,5.80
2017,03,17,19,00,5.70
2017,03,17,19,01,5.70
2017,03,17,19,02,5.70
2017,03,17,19,03,5.70
2017,03,17,19,04,5.70
2017,03,17,19,05,5.60
2017,03,17,19,06,5.60
2017,03,17,19,07,5.60
2017,03,17,19,08,5.60
2017,03,17,19,09,5.60
2017,03,17,19,10,5.60
2017,03,17,19,11,5.60
2017,03,17,19,12,5.50
2017,03,17,19,13,5.50
2017,03,17,19,14,5.50
2017,03,17,19,15,5.50
2017,03,17,19,16,5.50
2017,03,17,19,17,5.50
2017,03,17,19,18,5.50
2017,03,17,19,19,5.50
2017,03,17,19,20,5.50
2017,03,17,19,21,5.50
2017,03,17,19,22,5.50
2017,03,17,19,23,5.40
2017,03,17,19,24,5.40
2017,03,17,19,25,5.40
2017,03,17,19,26,5.40
2017,03,17,19,27,5.30
2017,03,17,19,28,5.30
2017,03,17,19,29,5.30
2017,03,17,19,30,5.30
2017,03,17,19,31,5.30
2017,03,17,19,32,5.30
2017,03,17,19,33,5.30
2017,03,17,19,34,5.30
2017,03,17,19,35,5.30
2017,03,17,19,36,5.30
2017,03,17,19,37,5.30
2017,03,17,19,38,5.30
2017,03,17,19,39,5.20
2017,03,17,19,40,5.20
2017,03,17,19,41,5.20
2017,03,17,19,42,5.20
2017,03,17,19,43,5.20
2017,03,17,19,44,5.20
2017,03,17,19,45,5.20
2017,03,17,19,46,5.20
2017,03,17,19,47,5.20
2017,03,17,19,48,5.20
2017,03,17,19,49,5.20
2017,03,17,19,50,5.20
2017,03,17,19,51,5.20
2017,03,17,19,52,5.20
2017,03,17,19,53,5.20
2017,03,17,19,54,5.20
2017,03,17,19,55,5.20
2017,03,17,19,56,5.20
2017,03,17,19,57,5.20
2017,03,17,19,58,5.20
2017,03,17,19,59,5.20
2017,03,17,20,00,5.20
2017,03,17,20,01,5.20
2017,03,17,20,02,5.20
2017,03,17,20,03,5.20
2017,03,17,20,04,5.20
2017,03,17,20,05,5.20
2017,03,17,20,06,5.20
2017,03,17,20,07,5.20
2017,03,17,20,08,5.20
2017,03,17,20,09,5.20
2017,03,17,20,10,5.20
2017,03,17,20,11,5.20
2017,03,17,20,12,5.20
2017,03,17,20,13,5.20
2017,03,17,20,14,5.20
2017,03,17,20,15,5.20
2017,03,17,20,16,5.20
2017,03,17,20,17,5.20
2017,03,17,20,18,5.20
2017,03,17,20,19,5.20
2017,03,17,20,20,5.20
2017,03,17,20,21,5.20
2017,03,17,20,22,5.20
2017,03,17,20,23,5.20
2017,03,17,20,24,5.20
2017,03,17,20,25,5.20
2017,03,17,20,26,5.20
2017,03,17,20,27,5.20
2017,03,17,20,28,5.20
2017,03,17,20,29,5.20
2017,03,17,20,30,5.20
2017,03,17,20,31,5.20
2017,03,17,20,32,5.20
2017,03,17,20,33,5.20
2017,03,17,20,34,5.20
2017,03,17,20,35,5.20
2017,03,17,20,36,5.20
2017,03,17,20,37,5.20
2017,03,17,20,38,5.20
2017,03,17,20,39,5.20
2017,03,17,20,40,5.20
2017,03,17,20,41,5.20
2017,03,17,20,42,5.20
2017,03,17,20,43,5.20
2017,03,17,20,44,5.20
2017,03,17,20,45,5.20
2017,03,17,20,46,5.20
2017,03,17,20,47,5.20
2017,03,17,20,48,5.20
2017,03,17,20,49,5.20
2017,03,17,20,50,5.20
2017,03,17,20,51,5.20
2017,03,17,20,52,5.20
2017,03,17,20,53,5.20
2017,03,17,20,54,5.20
2017,03,17,20,55,5.20
2017,03,17,20,56,5.20
2017,03,17,20,57,5.20
2017,03,17,20,58,5.20
2017,03,17,20,59,5.20
2017,03,17,21,00,5.20
2017,03,17,21,01,5.20
2017,03,17,21,02,5.20
2017,03,17,21,03,5.20
2017,03,17,21,04,5.20
2017,03,17,21,05,5.20
2017,03,17,21,06,5.20
2017,03,17,21,07,5.20
2017,03,17,21,08,5.20
2017,03,17,21,09,5.20
2017,03,17,21,10,5.20
2017,03,17,21,11,5.20
2017,03,17,21,12,5.20
2017,03,17,21,13,5.20
2017,03,17,21,14,5.20
2017,03,17,21,15,5.20
2017,03,17,21,16,5.20
2017,03,17,21,17,5.10
2017,03,17,21,18,5.10
2017,03,17,21,19,5.10
2017,03,17,21,20,5.10
2017,03,17,21,21,5.10
2017,03,17,21,22,5.10
2017,03,17,21,23,5.10
2017,03,17,21,24,5.10
2017,03,17,21,25,5.10
2017,03,17,21,26,5.10
2017,03,17,21,27,5.10
2017,03,17,21,28,5.10
2017,03,17,21,29,5.10
2017,03,17,21,30,5.10
2017,03,17,21,31,5.10
2017,03,17,21,32,5.10
2017,03,17,21,33,5.10
2017,03,17,21,34,5.10
2017,03,17,21,35,5.10
2017,03,17,21,36,5.10
2017,03,17,21,37,5.10
2017,03,17,21,38,5.10
2017,03,17,21,39,5.10
2017,03,17,21,40,5.10
2017,03,17,21,41,5.10
2017,03,17,21,42,5.10
2017,03,17,21,43,5.10
2017,03,17,21,44,5.10
2017,03,17,21,45,5.10
2017,03,17,21,46,5.10
2017,03,17,21,47,5.10
2017,03,17,21,48,5.10
2017,03,17,21,49,5.10
2017,03,17,21,50,5.10
2017,03,17,21,51,5.10
2017,03,17,21,52,5.10
2017,03,17,21,53,5.10
2017,03,17,21,54,5.10
2017,03,17,21,55,5.10
2017,03,17,21,56,5.10
2017,03,17,21,57,5.10
2017,03,17,21,58,5.10
2017,03,17,21,59,5.10
2017,03,17,22,00,5.10
2017,03,17,22,01,5.10
2017,03,17,22,02,5.10
2017,03,17,22,03,5.10
2017,03,17,22,04,5.10
2017,03,17,22,05,5.10
2017,03,17,22,06,5.10
2017,03,17,22,07,5.10
2017,03,17,22,08,5.10
2017,03,17,22,09,5.10
2017,03,17,22,10,5.10
2017,03,17,22,11,5.00
2017,03,17,22,12,5.00
2017,03,17,22,13,5.00
2017,03,17,22,14,5.00
2017,03,17,22,15,5.00
2017,03,17,22,16,5.00
2017,03,17,22,17,5.00
2017,03,17,22,18,5.00
2017,03,17,22,19,5.00
2017,03,17,22,20,5.00
2017,03,17,22,21,5.00
2017,03,17,22,22,5.00
2017,03,17,22,23,5.00
2017,03,17,22,24,5.00
2017,03,17,22,25,5.00
2017,03,17,22,26,4.90
2017,03,17,22,27,4.90
2017,03,17,22,28,4.90
2017,03,17,22,29,5.00
2017,03,17,22,30,5.00
2017,03,17,22,31,5.00
2017,03,17,22,32,5.00
2017,03,17,22,33,5.00
2017,03,17,22,34,4.90
2017,03,17,22,35,4.90
2017,03,17,22,36,4.90
2017,03,17,22,37,4.90
2017,03,17,22,38,5.00
2017,03,17,22,39,5.00
2017,03,17,22,40,5.00
2017,03,17,22,41,5.00
2017,03,17,22,42,5.00
2017,03,17,22,43,5.00
2017,03,17,22,44,5.00
2017,03,17,22,45,5.00
2017,03,17,22,46,5.00
2017,03,17,22,47,5.00
2017,03,17,22,48,5.00
2017,03,17,22,49,5.00
2017,03,17,22,50,5.00
2017,03,17,22,51,4.90
2017,03,17,22,52,4.90
2017,03,17,22,53,4.90
2017,03,17,22,54,4.90
2017,03,17,22,55,5.00
2017,03,17,22,56,5.00
2017,03,17,22,57,5.00
2017,03,17,22,58,4.90
2017,03,17,22,59,4.90
2017,03,17,23,00,4.90
2017,03,17,23,01,4.90
2017,03,17,23,02,4.90
2017,03,17,23,03,4.90
2017,03,17,23,04,4.90
2017,03,17,23,05,4.90
2017,03,17,23,06,4.90
2017,03,17,23,07,4.90
2017,03,17,23,08,4.90
2017,03,17,23,09,4.90
2017,03,17,23,10,4.90
2017,03,17,23,11,4.90
2017,03,17,23,12,4.90
2017,03,17,23,13,4.90
2017,03,17,23,14,4.90
2017,03,17,23,15,4.90
2017,03,17,23,16,4.90
2017,03,17,23,17,4.90
2017,03,17,23,18,4.90
2017,03,17,23,19,4.90
2017,03,17,23,20,4.90
2017,03,17,23,21,4.90
2017,03,17,23,22,4.90
2017,03,17,23,23,4.90
2017,03,17,23,24,4.90
2017,03,17,23,25,4.90
2017,03,17,23,26,4.90
2017,03,17,23,27,4.90
2017,03,17,23,28,4.90
2017,03,17,23,29,4.90
2017,03,17,23,30,4.90
2017,03,17,23,31,4.90
2017,03,17,23,32,4.90
2017,03,17,23,33,4.90
2017,03,17,23,34,4.90
2017,03,17,23,35,4.90
2017,03,17,23,36,4.90
2017,03,17,23,37,4.90
2017,03,17,23,38,4.90
2017,03,17,23,39,4.90
2017,03,17,23,40,4.90
2017,03,17,23,41,4.90
2017,03,17,23,42,4.90
2017,03,17,23,43,4.90
2017,03,17,23,44,4.90
2017,03,17,23,45,4.90
2017,03,17,23,46,4.90
2017,03,17,23,47,4.90
2017,03,17,23,48,5.00
2017,03,17,23,49,5.00
2017,03,17,23,50,5.00
2017,03,17,23,51,5.00
2017,03,17,23,52,5.00
2017,03,17,23,53,5.00
2017,03,17,23,54,5.00
2017,03,17,23,55,5.00
2017,03,17,23,56,5.00
2017,03,17,23,57,5.00
2017,03,17,23,58,5.00
2017,03,17,23,59,5.00
